ORBCOMM FM113 [+] (41185 NORAD) Tracking and Keplerian Element Data

This shows tracking and keplerian element data for the satellite.

Feedback or suggestion? Click here.




ElementValue
Catalog41185
NameORBCOMM FM113 [+]
Epoch Orbit36081
Epoch Day270.05843008
Epoch Year2022
RAAN197.9602
Inclination47.0007
Eccentricity0.0001441
Argument of Perigee214.3344
Mean Anonmoly145.7447
Mean Motion14.55159953
Decay Rate3.88E-06
L11 41185U 15081G 22270.05843008 .00000388 00000+0 12691-3 0 9995
L22 41185 47.0007 197.9602 0001441 214.3344 145.7447 14.55159953360811

Live tracking and technical data element details for ORBCOMM FM113 [+] (NORAD 41185). ORBCOMM FM113 [+] can be tracked NOW for your location showing map with azimuth and elevation plus other details from your city location.

Track the satellite on the map from your city or location and see movement details for azimuth, elevation, latitude, longitude, range, height, and movement on the map or in text.







IsCatalogInMostPopularTable: catalog: 41185, numindb: 612
Update: records affected: 1



GetName: 41185 ORBCOMM FM113 [+]

Hit Count: updated at: Thu, 29 Sep 2022 11:21:06 GMT